STARLINK-32511, 61727

Orbit data source: Space-Track

STARLINK-32511, 61727 is a payload satellite owned by SpaceX/Seattle (US) in LEO that was launched on Wed, 30 Oct 2024 UTC via an FALCON 9 launch vehicle from the Air Force Eastern Test Range (AFETR). Payloads include a variety of satellites, spacecraft, and rockets equipped with specific instruments for various scientific and technological missions. These include communications satellites like Starlink; space stations such as the ISS; scientific satellites like the Hubble; Earth observation satellites from companies like Planet Labs, Umbra, and HawkEye 360; GPS; miniature CubeSats for education and research; and military/defense satellites.

Loading next visibility...
STARLINK-32511 details
Identifier
61727, 2024-196W
Orbit
LEO
Last TLE update1 day ago
Origin
Flag of USSpaceX/Seattle (US)
ManufacturerSpaceX/Seattle
MissionOperational spacecraft
Bus & MotorSTARLINK V2M, Unknown motor
Mass730 kg wet, ~700 kg dry
Launch date (UTC)
2024-10-30 (1 month ago)
Launch vehicle
FALCON 9
Launch site
Air Force Eastern Test Range (AFETR)
Object type
Payload
Rocket body
Debris
Shape & HBRUnknown
Radar Cross SectionLarge (>1 m²)

Expand to show TLE details & history

TLE from 1 day ago
0 STARLINK-32511
1 61727U 24196W   24347.57753090 -.00000618  00000-0 -54733-5 0  9995
2 61727  53.1616  44.3752 0001128  72.9217 287.1912 15.39611718  7922
Epoch: 2024-12-12T13:51Z
Definitive object data (Epoch: 2024-12-12T13:51:38.669Z)
Latitude0.00001°
Longitude114.70823°
Altitude447.933 km
Speed7.645 km/s
True Right ascension02h 57m 30s
True Declination0° 00' 00"
Sunlit
Object was in full shadow at TLE epoch
Visualization TLE readout
Latitude50.97236°
Longitude175.31623°
Altitude452.527 km
Speed7.648 km/s
Apparent Right ascension07h 27m 54s
Apparent Declination7° 32' 57"
Sunlit
Object is in full shadow
Visualization observer readout
Local Sidereal Time19:52:30
Azimuth8.242° NNE
Elevation-42.195°
Doppler factor1
Orbital elements
Apogee altitude448.284 km
Perigee altitude446.744 km
Semi-major axis6,825.651 km
Eccentricity0.0001128
Inclination53.1616°
RAAN44.3752°
Arg. of periapsis72.9217°
True anomaly287.17885°
Mean anomaly287.1912°
Eccentric anomaly287.18503°
Mean motion3.84882 °/min
BSTAR-0.0000054733
Orbital period93.54 mins
Loading maneuver chart data...
Loading historical data...
Loading historical data...
Loading historical data...
Loading historical data...
Loading historical data...
Loading historical data...
Loading historical data...

STARLINK-32511 Visibility forecast

Observer location: undefined°, undefined

Span
Click to sort rows by Start time (UTC) header in descending order
Start Az.
Max El. time (UTC)
Max El. Az.
Max El.
End time (UTC)
End Az.
5 mins2024-12-14 06:33:47.567Z237.478° WSW2024-12-14 06:35:47.567Z266.476° W41.807°2024-12-14 06:38:47.567Z45.101° ENE
5 mins2024-12-14 13:06:47.567Z312.104° NW2024-12-14 13:08:47.567Z64.586° ENE44.891°2024-12-14 13:11:47.567Z129.089° SE
|